Vorticity
nan nan nan nan nan nan nan nan nan nan nan nan nan nan nan nan nan nan nan nan nan nan nan nan nan nan nan nan nan nan nan nan nan nan nan nan nan nan nan nan nan nan nan nan nan nan nan nan nan
nan 0 0 7 5 3 8 16 4 4 5 6 7 5 4 3 16 14 6 5 8 8 7 5 5 9 9 6 6 6 6 6 5 6 5 5 4 6 6 7 5 6 5 5 4 6 5 2 nan
nan 8 10 7 3 -0 1 0 6 6 1 3 7 9 11 8 3 8 5 5 8 9 8 10 7 7 7 7 6 6 5 6 7 7 3 6 6 7 6 5 5 6 6 6 5 4 3 1 nan
nan 9 3 2 2 2 4 6 8 6 7 2 2 9 8 11 6 7 6 6 7 7 8 11 7 6 8 8 5 6 7 6 7 6 6 6 7 5 6 5 6 5 7 6 4 3 1 3 nan
nan 7 5 2 5 6 10 10 3 6 3 4 6 4 7 11 7 6 4 5 7 7 9 11 5 4 8 8 7 6 4 5 7 5 8 7 6 5 6 6 6 6 8 6 4 3 3 3 nan
nan 3 3 5 7 10 13 6 9 7 1 7 12 5 6 11 6 4 4 6 5 8 10 8 8 7 6 8 11 12 12 9 -0 7 7 6 5 5 4 6 7 7 6 7 5 5 4 3 nan
nan 5 2 -0 2 7 14 10 7 7 5 9 9 11 11 7 5 8 5 4 7 9 9 7 7 5 7 10 15 12 4 15 6 8 5 5 5 5 6 6 7 8 7 5 5 5 4 4 nan
nan 4 5 4 4 5 18 10 2 3 11 5 3 5 14 10 5 3 3 8 9 7 8 8 9 11 11 11 10 7 2 -5 12 23 5 4 2 4 5 6 6 6 5 6 6 5 4 4 nan
nan 3 8 6 3 15 14 4 4 4 5 5 4 4 12 6 4 5 6 8 7 7 7 9 12 11 11 11 10 5 -1 2 26 11 2 -1 3 5 4 5 7 5 7 6 6 4 4 4 nan
nan 4 4 3 3 14 6 5 5 11 6 5 10 9 5 3 3 4 9 10 9 7 8 7 6 8 10 9 8 5 4 6 20 9 2 3 6 5 5 4 2 3 6 3 4 4 2 2 nan
nan 0 3 1 4 6 3 7 5 8 7 3 10 18 8 2 5 6 10 8 10 10 9 9 8 5 6 7 5 6 8 5 14 11 4 6 6 8 5 4 4 4 2 2 4 2 2 4 nan
nan 6 3 3 5 4 9 4 5 6 7 12 7 7 6 9 7 7 7 10 11 8 8 9 7 6 6 6 9 8 8 8 8 6 8 7 7 8 8 7 7 5 5 7 4 4 8 6 nan
nan 7 6 6 5 6 9 3 6 6 3 8 10 6 7 6 7 9 9 8 5 7 9 12 10 8 5 6 8 10 8 7 9 6 5 6 8 8 8 8 6 6 7 7 6 7 8 7 nan
nan 7 8 9 7 7 9 5 4 5 7 4 6 5 8 8 7 5 8 6 7 6 7 10 12 11 7 6 8 7 7 8 6 7 7 4 6 9 8 6 6 7 6 6 6 8 7 8 nan
nan 8 15 12 5 7 10 7 4 8 9 10 6 7 9 6 6 8 8 7 10 8 6 6 8 9 9 9 5 6 8 7 6 9 8 4 5 8 7 6 6 7 8 6 7 8 7 8 nan
nan 12 9 9 9 10 6 6 9 10 17 14 5 9 8 7 7 7 9 10 7 8 8 6 7 8 9 8 6 8 8 7 8 9 7 6 6 9 6 7 7 9 7 7 9 7 8 8 nan
nan 13 11 7 8 14 11 6 9 8 14 7 9 8 8 9 7 7 8 9 7 6 6 7 6 7 8 8 9 10 10 12 9 7 8 7 5 9 7 10 10 11 8 8 8 7 8 8 nan
nan 6 3 8 17 15 8 7 3 12 9 4 5 10 11 9 9 8 7 10 11 6 5 7 8 7 6 6 10 11 13 13 9 8 7 8 8 8 7 9 11 9 8 8 9 8 8 8 nan
nan 3 8 13 11 19 12 1 6 12 4 9 9 8 8 12 12 10 7 9 8 7 8 6 8 7 5 7 8 9 10 10 10 8 10 7 9 6 6 7 8 7 9 9 7 9 8 7 nan
nan 4 7 5 9 9 10 9 8 9 10 7 10 8 9 9 11 9 7 6 6 9 8 8 8 6 5 6 7 10 9 7 6 9 11 7 9 5 5 8 7 5 7 10 8 7 7 9 nan
nan 8 7 5 6 7 9 8 10 11 11 12 6 9 13 9 9 8 6 6 7 8 9 9 9 7 7 6 5 8 7 8 4 9 12 10 9 6 5 5 6 7 7 7 8 8 7 7 nan
nan 12 6 7 9 11 2 5 16 16 11 9 8 8 7 13 13 9 7 7 7 7 9 9 8 7 7 7 7 5 5 8 5 6 9 10 8 8 7 6 6 6 7 7 8 7 8 9 nan
nan 9 9 12 10 7 6 6 8 11 20 14 12 8 8 10 11 11 9 8 8 7 9 9 9 7 7 7 7 5 6 7 7 6 7 9 7 8 8 6 8 7 8 10 8 6 7 5 nan
nan 14 11 13 14 14 9 6 9 9 12 16 14 16 15 10 10 12 12 8 7 9 8 10 9 7 8 7 8 8 7 6 5 6 6 5 7 9 9 7 6 8 9 8 8 10 8 6 nan
nan 11 17 13 11 10 10 12 6 4 5 17 13 11 19 16 11 12 10 8 8 9 7 8 9 8 8 8 7 8 8 9 7 5 7 6 4 7 9 8 5 8 7 7 8 8 9 9 nan
nan 6 7 5 9 16 11 7 11 14 6 5 9 11 11 11 11 13 11 9 9 10 7 7 8 8 8 7 7 8 5 5 12 9 5 7 7 7 9 8 7 7 9 6 4 7 9 8 nan
nan 7 6 6 8 11 22 17 8 12 15 6 12 9 7 10 9 10 12 12 10 9 8 9 8 8 10 7 6 8 8 6 8 9 6 7 6 5 9 10 9 6 7 8 5 6 7 8 nan
nan 3 9 11 10 8 14 17 18 11 11 10 13 13 10 11 14 11 10 11 11 10 10 9 8 9 10 9 6 9 8 7 7 9 9 7 8 7 5 6 8 11 8 8 6 7 9 7 nan
nan 7 5 8 7 4 9 1 7 15 17 12 8 11 13 10 10 15 19 17 12 10 10 9 9 9 9 10 9 8 9 8 7 7 9 9 9 10 8 7 6 7 8 8 7 7 8 7 nan
nan nan nan nan nan nan nan nan nan nan nan nan nan nan nan nan nan nan nan nan nan nan nan nan nan nan nan nan nan nan nan nan nan nan nan nan nan nan nan nan nan nan nan nan nan nan nan nan nan
CAPE
0 0 0 0 0 0 0 0 0 0 0 0 0 0 0 0 0 282 1120 1255 1382 1350 1507 1449 1809 1975 1985 1852 1774 1727 1776 1738 1623 1661 1588 1524 1389 1278 1228 1177 1020 969 969 573 455 299 190 227 234
0 0 0 0 0 0 0 0 0 0 0 0 0 0 0 0 133 272 1361 1266 1223 1181 1495 1522 1520 2011 2042 1849 1762 1767 1859 1848 1741 1767 1679 1556 1505 1492 1268 1062 883 874 780 456 356 241 105 117 258
0 0 0 0 0 0 0 0 0 0 0 0 0 0 0 0 225 395 1122 1205 1170 1303 1735 1487 1413 1579 2035 1857 1764 1628 1653 1619 1605 1709 1807 1659 1648 1396 1053 1028 837 745 576 250 246 108 34 52 56
0 0 0 0 0 0 0 0 0 0 0 0 0 0 8 102 128 891 974 873 1388 1552 1721 1074 1316 1440 1692 1891 1719 1634 1452 1427 1477 1556 1634 1685 1610 1422 1175 918 749 614 369 103 122 59 25 27 21
0 0 0 0 0 0 0 0 0 0 0 0 0 0 3 592 809 768 927 876 1253 1597 1983 1378 1247 1507 1747 1682 1552 1556 1377 1357 1429 1502 1532 1482 1440 1264 1046 861 734 661 459 200 53 6 1 3 0
0 0 0 0 0 0 1 0 0 0 0 0 0 0 15 787 583 983 1018 881 1442 1562 1994 1813 1232 1409 1188 1586 1305 944 690 835 1226 1337 1438 1419 1094 907 817 693 627 534 352 191 78 15 1 0 0
0 0 0 0 0 0 1 0 0 0 0 0 6 0 0 532 538 721 987 864 1308 1448 1642 1926 1722 1353 711 746 532 219 4 2 727 1185 1116 984 756 724 740 827 582 439 251 144 62 3 0 0 0
0 0 0 0 0 0 0 0 0 0 0 0 0 0 0 899 625 716 651 656 919 1571 1656 1415 1370 1313 643 549 233 7 11 0 6 906 792 552 597 712 761 510 441 317 196 132 41 0 0 0 0
0 0 0 0 0 0 0 0 0 0 0 0 0 0 284 508 245 369 432 561 568 1121 1176 897 1131 1234 870 207 220 10 5 0 58 591 483 312 392 441 414 258 283 212 104 66 10 0 0 0 0
0 0 0 0 0 0 2 0 0 0 0 0 0 16 404 328 162 82 110 388 626 772 1067 635 770 674 306 157 130 6 1 1 105 359 284 324 360 246 235 155 205 158 66 7 0 0 0 0 0
0 0 0 0 0 0 0 0 0 0 0 0 8 0 647 491 160 157 85 165 466 621 877 730 381 446 193 113 116 41 39 124 61 149 153 161 168 205 169 107 74 13 1 0 0 0 0 0 0
0 0 0 0 0 0 0 0 0 0 0 0 0 0 0 213 205 267 140 297 475 494 419 384 297 167 130 184 139 29 10 70 19 0 0 49 32 113 169 108 3 0 0 0 0 0 0 0 0
0 0 0 0 0 0 0 0 0 0 0 0 0 0 0 31 0 68 130 303 280 220 417 185 16 9 120 126 180 79 66 2 0 0 0 0 10 48 115 83 1 0 0 0 0 0 0 0 0
0 0 0 0 0 0 0 0 0 0 0 0 0 0 40 42 0 24 159 288 230 57 51 23 16 78 9 110 78 113 50 2 0 0 0 9 18 25 110 136 22 0 0 0 0 1 0 0 0
0 0 0 0 0 0 0 0 0 0 0 0 0 0 75 60 0 0 127 276 232 47 1 4 1 0 3 37 57 40 38 2 0 0 0 4 1 24 145 151 107 27 6 0 0 5 0 4 2
0 0 0 0 0 0 0 0 0 0 0 0 0 7 107 73 35 3 0 166 173 17 2 2 4 2 3 8 12 22 46 11 2 0 0 0 3 91 136 149 124 64 35 28 35 0 0 1 0
0 0 0 0 0 0 0 0 0 0 0 0 0 13 121 128 47 11 0 89 114 4 5 9 4 3 2 2 4 4 5 2 1 0 0 0 0 78 62 46 60 102 57 35 17 1 0 0 4
0 0 0 0 0 0 0 0 0 0 0 0 0 0 86 153 143 29 1 0 66 0 4 5 11 10 6 5 4 9 3 2 3 0 0 21 21 13 1 26 12 9 15 28 10 5 4 3 2
0 0 0 0 1 0 0 0 0 0 0 1 0 0 14 213 189 42 28 0 35 0 10 3 8 13 7 4 5 2 8 15 11 11 5 27 19 4 29 35 46 31 3 0 23 36 13 7 0
0 0 0 0 0 0 0 0 0 0 0 0 0 7 0 89 169 82 51 0 38 6 4 16 8 14 11 2 2 2 4 2 9 21 0 0 4 7 30 50 60 73 119 102 50 15 25 5 0
0 0 0 0 0 0 0 0 0 0 0 0 0 0 10 40 180 112 112 21 31 20 6 5 9 10 7 9 4 2 2 3 1 1 3 15 14 3 15 58 90 96 118 84 71 73 49 0 0
0 0 0 0 1 0 0 0 0 0 0 0 0 0 0 3 234 211 144 114 2 24 1 4 6 3 7 9 12 1 3 6 0 0 2 25 79 30 32 61 79 70 47 126 140 139 127 104 2
0 3 1 0 3 0 0 0 0 0 0 0 0 0 0 0 67 260 200 189 46 28 1 0 6 4 3 12 11 11 5 1 0 0 0 2 59 121 39 54 100 67 42 43 99 149 165 150 147
0 0 1 0 13 0 0 0 0 0 0 0 5 3 0 2 6 227 304 201 181 15 23 1 10 10 6 3 11 11 7 0 0 0 0 0 4 91 98 49 68 110 122 74 109 155 171 157 205
0 0 6 1 8 2 0 0 0 0 0 0 0 0 0 15 20 174 345 214 237 79 55 1 2 13 13 2 2 3 14 2 0 0 0 0 0 22 62 42 41 78 77 126 159 145 160 230 168
0 0 9 10 23 0 0 0 0 0 0 0 0 0 3 6 26 47 305 324 281 169 111 0 2 9 9 10 4 4 3 6 1 0 0 0 0 1 19 21 15 46 60 87 167 170 135 112 117
0 0 0 0 0 0 0 1 0 0 0 0 0 0 0 0 0 35 310 466 309 286 107 32 0 6 9 0 12 8 10 1 1 0 0 0 0 0 8 32 35 19 34 87 122 119 105 80 104
0 0 2 0 0 1 19 23 5 11 0 0 3 0 1 20 10 36 87 529 440 391 227 126 9 0 0 4 6 5 5 4 0 2 0 0 0 0 0 7 55 55 47 83 126 107 73 92 95
1 1 3 5 12 18 11 5 12 0 4 22 3 10 5 10 0 5 84 157 543 485 382 193 81 10 0 0 5 8 2 2 7 3 2 0 0 0 0 0 1 10 42 50 49 44 52 69 62
0 0 2 20 16 13 20 24 7 0 0 0 0 0 1 6 18 17 19 170 290 568 515 416 172 76 15 9 0 2 7 3 2 0 0 2 0 0 0 0 0 0 0 4 11 14 13 18 18